| time (UTC) | temp F | wind direction | speed MPH | gust MPH | rain 1hr in | rain 24hr in | rain mn in | humidity % | barometer mb |
| 20260504043705 | 37 | 227 | 0.0 | 1.0 | 0.00 | 0.00 | 0.00 | 80 | 1001.6 |
| 20260504043205 | 37 | 227 | 0.0 | 1.0 | 0.00 | 0.00 | 0.00 | 79 | 1001.7 |
| 20260504040705 | 36 | 227 | 0.0 | 0.0 | 0.00 | 0.00 | 0.00 | 77 | 1001.7 |
| 20260504033705 | 35 | 227 | 1.0 | 2.0 | 0.00 | 0.00 | 0.00 | 75 | 1002.1 |
| 20260504033206 | 35 | 227 | 1.0 | 2.0 | 0.00 | 0.00 | 0.00 | 75 | 1002.0 |
| 20260504023705 | 37 | 233 | 1.0 | 2.0 | 0.00 | 0.00 | 0.00 | 68 | 1002.2 |
| 20260504023205 | 37 | 233 | 1.0 | 2.0 | 0.00 | 0.00 | 0.00 | 66 | 1002.3 |
| 20260504020706 | 38 | 233 | 1.0 | 2.0 | 0.00 | 0.00 | 0.00 | 63 | 1002.5 |
| 20260504020205 | 39 | 233 | 1.0 | 2.0 | 0.00 | 0.00 | 0.00 | 59 | 1002.4 |
| 20260504013706 | 40 | 233 | 1.0 | 2.0 | 0.00 | 0.00 | 0.00 | 57 | 1002.5 |
| 20260504013205 | 40 | 235 | 1.0 | 2.0 | 0.00 | 0.00 | 0.00 | 56 | 1002.5 |
| 20260504010204 | 42 | 235 | 1.0 | 2.0 | 0.00 | 0.00 | 0.00 | 53 | 1002.4 |
| 20260504003705 | 45 | 0 | 1.0 | 1.0 | 0.00 | 0.00 | 0.00 | 51 | 1002.3 |
| 20260504003204 | 45 | 0 | 1.0 | 3.0 | 0.00 | 0.00 | 0.00 | 49 | 1002.3 |
| 20260504000205 | 48 | 354 | 2.0 | 3.0 | 0.00 | 0.00 | 0.00 | 45 | 1002.2 |
| 20260503233705 | 51 | 257 | 1.0 | 2.0 | 0.00 | 0.00 | 0.00 | 39 | 1002.2 |
| 20260503233205 | 51 | 258 | 1.0 | 2.0 | 0.00 | 0.00 | 0.00 | 39 | 1002.4 |
| 20260503230705 | 52 | 0 | 1.0 | 2.0 | 0.00 | 0.00 | 0.00 | 35 | 1002.3 |
| 20260503230204 | 52 | 264 | 0.0 | 10.0 | 0.00 | 0.00 | 0.00 | 35 | 1002.3 |
| 20260503223705 | 52 | 316 | 2.0 | 5.0 | 0.00 | 0.00 | 0.00 | 37 | 1002.3 |
| 20260503223205 | 52 | 316 | 2.0 | 8.0 | 0.00 | 0.00 | 0.00 | 39 | 1002.4 |
| 20260503220704 | 52 | 306 | 2.0 | 3.0 | 0.00 | 0.00 | 0.00 | 41 | 1002.4 |
| 20260503220204 | 52 | 309 | 3.0 | 9.0 | 0.00 | 0.00 | 0.00 | 37 | 1002.4 |
| 20260503213704 | 52 | 323 | 2.0 | 8.0 | 0.00 | 0.00 | 0.00 | 36 | 1002.6 |
| 20260503213204 | 52 | 317 | 3.0 | 14.0 | 0.00 | 0.00 | 0.00 | 37 | 1002.6 |
| 20260503210705 | 53 | 316 | 3.0 | 9.0 | 0.00 | 0.00 | 0.00 | 33 | 1002.6 |
| 20260503210204 | 53 | 254 | 3.0 | 10.0 | 0.00 | 0.00 | 0.00 | 34 | 1002.6 |
| 20260503203704 | 51 | 284 | 6.0 | 14.0 | 0.00 | 0.00 | 0.00 | 37 | 1002.8 |
| 20260503203205 | 51 | 320 | 5.0 | 12.0 | 0.00 | 0.00 | 0.00 | 39 | 1002.8 |
| 20260503200705 | 50 | 323 | 7.0 | 13.0 | 0.00 | 0.00 | 0.00 | 38 | 1003.1 |
| 20260503200205 | 50 | 321 | 8.0 | 20.0 | 0.00 | 0.00 | 0.00 | 42 | 1003.1 |
| 20260503193705 | 51 | 342 | 4.0 | 12.0 | 0.00 | 0.00 | 0.00 | 39 | 1003.2 |
| 20260503193205 | 50 | 304 | 2.0 | 15.0 | 0.00 | 0.00 | 0.00 | 40 | 1003.3 |
| 20260503190704 | 50 | 0 | 9.0 | 12.0 | 0.00 | 0.00 | 0.00 | 44 | 1003.7 |
| 20260503190204 | 50 | 352 | 4.0 | 14.0 | 0.00 | 0.00 | 0.00 | 41 | 1003.7 |
| 20260503183704 | 49 | 0 | 9.0 | 16.0 | 0.00 | 0.00 | 0.00 | 43 | 1004.0 |
| 20260503183205 | 49 | 318 | 7.0 | 12.0 | 0.00 | 0.00 | 0.00 | 43 | 1004.0 |
| 20260503180704 | 49 | 0 | 7.0 | 12.0 | 0.00 | 0.00 | 0.00 | 45 | 1004.2 |
| 20260503180204 | 49 | 0 | 9.0 | 15.0 | 0.00 | 0.00 | 0.00 | 42 | 1004.3 |
| 20260503173705 | 48 | 0 | 2.0 | 5.0 | 0.00 | 0.00 | 0.00 | 44 | 1004.6 |
| 20260503173206 | 48 | 0 | 6.0 | 15.0 | 0.00 | 0.00 | 0.00 | 43 | 1004.7 |
| 20260503170706 | 48 | 0 | 4.0 | 13.0 | 0.00 | 0.00 | 0.00 | 45 | 1004.9 |
| 20260503170205 | 48 | 351 | 10.0 | 15.0 | 0.00 | 0.00 | 0.00 | 43 | 1005.0 |
| 20260503160207 | 46 | 345 | 5.0 | 12.0 | 0.00 | 0.00 | 0.00 | 43 | 1005.7 |
| 20260503150706 | 45 | 309 | 5.0 | 10.0 | 0.00 | 0.00 | 0.00 | 49 | 1006.3 |
| 20260503150207 | 45 | 0 | 7.0 | 12.0 | 0.00 | 0.00 | 0.00 | 51 | 1006.5 |
| 20260503140207 | 43 | 314 | 6.0 | 12.0 | 0.00 | 0.00 | 0.00 | 58 | 1007.1 |
| 20260503130705 | 40 | 310 | 3.0 | 6.0 | 0.00 | 0.00 | 0.00 | 65 | 1007.6 |
| 20260503130205 | 40 | 331 | 1.0 | 3.0 | 0.00 | 0.00 | 0.00 | 67 | 1007.6 |
| 20260503120205 | 36 | 274 | 1.0 | 2.0 | 0.00 | 0.00 | 0.00 | 89 | 1007.6 |
| 20260503110706 | 34 | 273 | 0.0 | 0.0 | 0.00 | 0.00 | 0.00 | 91 | 1007.6 |
| 20260503110205 | 34 | 273 | 0.0 | 0.0 | 0.00 | 0.00 | 0.00 | 91 | 1007.5 |
| 20260503100205 | 33 | 273 | 0.0 | 0.0 | 0.00 | 0.00 | 0.00 | 90 | 1007.4 |
| 20260503090206 | 34 | 273 | 0.0 | 0.0 | 0.00 | 0.00 | 0.00 | 89 | 1007.7 |
| 20260503080706 | 34 | 273 | 0.0 | 0.0 | 0.00 | 0.00 | 0.00 | 88 | 1007.8 |
| 20260503080206 | 34 | 273 | 0.0 | 0.0 | 0.00 | 0.00 | 0.00 | 88 | 1007.9 |
| 20260503070705 | 35 | 273 | 0.0 | 0.0 | 0.00 | 0.00 | 0.00 | 86 | 1008.0 |
| 20260503070205 | 35 | 273 | 0.0 | 0.0 | 0.00 | 0.00 | 0.00 | 86 | 1008.0 |
| 20260503060205 | 36 | 273 | 0.0 | 0.0 | 0.00 | 0.00 | 0.00 | 82 | 1008.2 |
| 20260503053205 | 36 | 273 | 0.0 | 0.0 | 0.00 | 0.00 | 0.00 | 80 | 1008.2 |
| 20260503050705 | 36 | 273 | 0.0 | 0.0 | 0.00 | 0.00 | 0.00 | 79 | 1008.5 |